Vårt webkamera more information My webcam


webkamera på Randaberg more information webcam on Randaberg


Lynradar more information blitzortung!


Nedbørsradar  rain snow radar


Besøk vår andre værside:

Alternativ webside

Alternativ mobil

Regnskvett RandabergWebsite of another weatherstation



Ikke nødvendig med spesiell oppmerksomhet.    Det er ingen advarsler

Select another period ( hide this area )

enheter Periode Custom range Directly to
Metric Engelsk Begge
Daglig Weekly Månedlig Årlig
use both date-selectors for a custom range
previous Dag
With this date

WeatherUnderground graphs for this period ( click here )


Daglig sammendrag for Søndag 18 November 2018
Tid Temp. ( °C ) Dew pt. ( °C ) Vind ( km/h ) fra Vindkast ( km/h ) Trykk ( hPa ) Humid.( % ) Rainrate ( cm )
Max5,3 5,0 8,2 Øst ( 49/113 ) 10,1 1039,8 99 -
Snitt4,8 4,6 5,3 Øst #15/34 7,1 1039,5 98 -
Min4,4 4,3 2,1   4,0 1039,2 97 -
Daglig Tabular details for Søndag 18 November 2018
Tid Temp. ( °C ) Dew pt. ( °C ) Vind ( km/h ) fra Vindkast ( km/h ) Trykk ( hPa ) Humid.( % ) Rainrate ( cm )
00:04 5,3 5,0 5,0 5,0 1039,8 98 -
00:09 5,3 5,0 4,0 6,4 1039,5 98 -
00:14 5,3 5,0 4,7 ØSØ 6,9 1039,5 98 -
00:19 5,3 4,9 4,7 Øst 9,3 1039,5 97 -
00:24 5,2 4,8 5,0 Øst 6,9 1039,5 97 -
00:29 5,1 4,7 5,8 10,1 1039,5 97 -
00:34 5,1 4,8 4,7 Øst 5,8 1039,5 98 -
00:39 5,1 4,8 6,9 ØNØ 9,3 1039,5 98 -
00:44 4,9 4,6 5,0 Øst 6,9 1039,5 98 -
00:49 4,9 4,6 6,9 ØNØ 6,9 1039,5 98 -
00:54 4,8 4,5 5,0 ØSØ 6,4 1039,5 98 -
00:59 4,9 4,6 6,4 6,9 1039,5 98 -
01:04 4,8 4,5 5,0 Øst 8,7 1039,5 98 -
01:09 4,8 4,5 6,4 Øst 6,4 1039,5 98 -
01:14 4,7 4,4 4,7 ØSØ 6,9 1039,5 98 -
01:19 4,7 4,4 4,7 Øst 5,8 1039,5 98 -
01:24 4,6 4,3 3,2 ØNØ 6,4 1039,5 98 -
01:29 4,6 4,3 2,1 ØNØ 4,0 1039,5 98 -
01:34 4,7 4,6 3,2 Øst 6,9 1039,2 99 -
01:39 4,6 4,5 6,9 ØNØ 8,7 1039,2 99 -
01:44 4,4 4,3 7,6 ØNØ 8,2 1039,2 99 -
01:49 4,5 4,4 5,8 Øst 7,6 1039,2 99 -
01:54 4,6 4,5 2,9 ØSØ 5,0 1039,2 99 -
01:59 4,6 4,5 5,0 Øst 5,8 1039,2 99 -
02:04 4,6 4,5 5,0 Øst 6,4 1039,2 99 -
02:09 4,6 4,5 6,9 Øst 8,2 1039,2 99 -
02:14 4,6 4,5 6,9 ØNØ 8,7 1039,2 99 -
02:19 4,7 4,6 6,9 Øst 8,2 1039,2 99 -
02:24 4,7 4,6 4,7 ØSØ 6,9 1039,5 99 -
02:29 4,7 4,6 4,7 ØSØ 6,4 1039,5 99 -
02:34 4,8 4,7 5,0 Øst 6,9 1039,5 99 -
02:39 4,9 4,8 5,8 Øst 6,9 1039,2 99 -
02:44 4,9 4,8 8,2 ØNØ 8,2 1039,2 99 -
02:49 4,8 4,7 6,9 ØNØ 8,7 1039,2 99 -
Daglig sammendrag for Søndag 18 November 2018
Tid Temp. ( °C ) Dew pt. ( °C ) Vind ( km/h ) fra Vindkast ( km/h ) Trykk ( hPa ) Humid.( % ) Rainrate ( cm )
Max5,3 5,0 8,2 Øst ( 49/113 ) 10,1 1039,8 99 -
Snitt4,8 4,6 5,3 Øst #15/34 7,1 1039,5 98 -
Min4,4 4,3 2,1   4,0 1039,2 97 -
Daglig Tabular details for Søndag 18 November 2018
Tid Temp. ( °C ) Dew pt. ( °C ) Vind ( km/h ) fra Vindkast ( km/h ) Trykk ( hPa ) Humid.( % ) Rainrate ( cm )
00:04 5,3 5,0 5,0 5,0 1039,8 98 -
00:09 5,3 5,0 4,0 6,4 1039,5 98 -
00:14 5,3 5,0 4,7 ØSØ 6,9 1039,5 98 -
00:19 5,3 4,9 4,7 Øst 9,3 1039,5 97 -
00:24 5,2 4,8 5,0 Øst 6,9 1039,5 97 -
00:29 5,1 4,7 5,8 10,1 1039,5 97 -
00:34 5,1 4,8 4,7 Øst 5,8 1039,5 98 -
00:39 5,1 4,8 6,9 ØNØ 9,3 1039,5 98 -
00:44 4,9 4,6 5,0 Øst 6,9 1039,5 98 -
00:49 4,9 4,6 6,9 ØNØ 6,9 1039,5 98 -
00:54 4,8 4,5 5,0 ØSØ 6,4 1039,5 98 -
00:59 4,9 4,6 6,4 6,9 1039,5 98 -
01:04 4,8 4,5 5,0 Øst 8,7 1039,5 98 -
01:09 4,8 4,5 6,4 Øst 6,4 1039,5 98 -
01:14 4,7 4,4 4,7 ØSØ 6,9 1039,5 98 -
01:19 4,7 4,4 4,7 Øst 5,8 1039,5 98 -
01:24 4,6 4,3 3,2 ØNØ 6,4 1039,5 98 -
01:29 4,6 4,3 2,1 ØNØ 4,0 1039,5 98 -
01:34 4,7 4,6 3,2 Øst 6,9 1039,2 99 -
01:39 4,6 4,5 6,9 ØNØ 8,7 1039,2 99 -
01:44 4,4 4,3 7,6 ØNØ 8,2 1039,2 99 -
01:49 4,5 4,4 5,8 Øst 7,6 1039,2 99 -
01:54 4,6 4,5 2,9 ØSØ 5,0 1039,2 99 -
01:59 4,6 4,5 5,0 Øst 5,8 1039,2 99 -
02:04 4,6 4,5 5,0 Øst 6,4 1039,2 99 -
02:09 4,6 4,5 6,9 Øst 8,2 1039,2 99 -
02:14 4,6 4,5 6,9 ØNØ 8,7 1039,2 99 -
02:19 4,7 4,6 6,9 Øst 8,2 1039,2 99 -
02:24 4,7 4,6 4,7 ØSØ 6,9 1039,5 99 -
02:29 4,7 4,6 4,7 ØSØ 6,4 1039,5 99 -
02:34 4,8 4,7 5,0 Øst 6,9 1039,5 99 -
02:39 4,9 4,8 5,8 Øst 6,9 1039,2 99 -
02:44 4,9 4,8 8,2 ØNØ 8,2 1039,2 99 -
02:49 4,8 4,7 6,9 ØNØ 8,7 1039,2 99 -

Download your copy of this data-set  here

Our weather-data as stored at Weather Underground. Script utviklet av Jim McMurry. Tilrettelagt for malen av Leuven-Template.eu

Du finner vår vær info også på:

European Weather Network

WeatherCloud

Weather Underground

Citizen Weather Observer Program (CWOP)

Utstyr vi bruker:

Værstsjon
Oregon scientific WMR 300

Værprogram
Meteobridge

Oregon scientific WMR 300

Meteobridge